Location: hvezdarna zebrak
(49.8744°N, 13.8989°E)
Time: 19:11:16
(UTC+02:00)

Tiangong - Pass Details

Date: 15 March 2026
Orbit: 376 x 385 km, 41.5° (Epoch: 18 April)

Event Time Altitude Azimuth Distance (km) Brightness Sun altitude
Exits shadow 05:01:43 11° 202° (SSW) 1,345 0.3 -13.1°
Maximum altitude 05:03:24 15° 168° (SSE) 1,141 0.2 -12.8°
Drops below altitude 10° 05:05:20 10° 130° (SE) 1,408 1.3 -12.5°
Sets 05:08:00 0° 106° (ESE) 2,268 3.0 -12.1°
